User: anonymous   Login
Location: Bambrugge
(50.9212°N, 3.9299°E)
Time: 20:23:14
(UTC+00:00)
Language:

Cosmos 1707 - Orbit

View from above orbital plane
View from above orbital plane
View from above satellite
View from above satellite

Ground track
Ground track

The orbit data is extracted from the following two-line orbital elements,

1 16326U 85113A   24197.42200388  .00016469  00000-0  57643-3 0  9990
2 16326  82.5025 176.2326 0005825 359.3239   0.7991 15.29374165108810
Epoch (UTC): 15 July 2024 10:07:41
Eccentricity: 0.0005825
inclination: 82.5025°
perigee height: 473 km
apogee height: 481 km
right ascension of ascending node: 176.2326°
argument of perigee: 359.3239°
revolutions per day: 15.29374165
mean anomaly at epoch: 0.7991°
orbit number at epoch: 10881

The dashed part of the orbit path shows where the satellite is in the earth's shadow,  

DLR